This is the latest recevied weather packets stored in our database for station/object SP2TMT-10. If no packets are shown the sender has not sent any weather packets the latest 10 day(s).
| Time | Temp. | Humidity | Pressure | Rain* | Wind** | Luminosity | Snow |
|---|---|---|---|---|---|---|---|
| 1777804986 | 21.67° C | 32% | 1014.3 hPa | - | - | - | - |
| 1777804086 | 21.67° C | 33% | 1014.4 hPa | - | - | - | - |
| 1777803185 | 21.11° C | 35% | 1014.7 hPa | - | - | - | - |
| 1777802285 | 21.67° C | 35% | 1014.8 hPa | - | - | - | - |
| 1777800485 | 21.11° C | 38% | 1014.9 hPa | - | - | - | - |
| 1777799580 | 21.11° C | 35% | 1015.2 hPa | - | - | - | - |
| 1777798680 | 21.11° C | 34% | 1015.4 hPa | - | - | - | - |
| 1777797780 | 21.11° C | 35% | 1015.5 hPa | - | - | - | - |
| 1777796880 | 21.11° C | 36% | 1015.6 hPa | - | - | - | - |
| 1777795979 | 21.11° C | 36% | 1015.6 hPa | - | - | - | - |
| 1777795079 | 21.11° C | 36% | 1015.7 hPa | - | - | - | - |
| 1777793279 | 21.11° C | 36% | 1015.9 hPa | - | - | - | - |
| 1777792379 | 21.11° C | 36% | 1016 hPa | - | - | - | - |
| 1777791479 | 21.11° C | 36% | 1016.2 hPa | - | - | - | - |
| 1777790579 | 21.11° C | 36% | 1016.1 hPa | - | - | - | - |
| 1777789679 | 21.11° C | 36% | 1016.2 hPa | - | - | - | - |
| 1777788779 | 21.11° C | 36% | 1016.2 hPa | - | - | - | - |
| 1777787879 | 21.11° C | 36% | 1016.2 hPa | - | - | - | - |
| 1777786979 | 21.11° C | 35% | 1016.3 hPa | - | - | - | - |
| 1777786073 | 21.11° C | 35% | 1016.3 hPa | - | - | - | - |
| 1777785173 | 21.11° C | 36% | 1016.4 hPa | - | - | - | - |
| 1777784273 | 21.11° C | 36% | 1016.5 hPa | - | - | - | - |
| 1777783373 | 21.11° C | 36% | 1016.5 hPa | - | - | - | - |
| 1777782473 | 21.11° C | 36% | 1016.5 hPa | - | - | - | - |
| 1777781573 | 21.11° C | 36% | 1016.5 hPa | - | - | - | - |
* Rain since midnight (hover to see other rain measurements)
** Current wind speed in m/s (hover to see current wind gust speed)